Waukegan, IL

1:48 AM CST on January 19, 2017 (GMT -0600)
Waukegan Regional

Weather History for KUGN - May, 2013

Change the Weather History Date:

Tuesday, May 7, 2013

  Actual Average Record
Temperature  
Mean Temperature 57 °F -  
Max Temperature 71 °F 63 °F 83 °F (2015)
Min Temperature 43 °F 44 °F 36 °F (2006)
Degree Days  
Heating Degree Days 8 12  
Month to date heating degree days 78 90  
Since 1 July heating degree days 6378 6532  
Cooling Degree Days 0 0  
Month to date cooling degree days 0 0  
Year to date cooling degree days 8 4  
Growing Degree Days 8 (Base 50)    
Moisture  
Dew Point 41 °F    
Average Humidity 61    
Maximum Humidity 86    
Minimum Humidity 35    
Precipitation  
Precipitation 0.00 in 0.13 in 0.53 in (2010)
Month to date precipitation 0.21 0.88  
Year to date precipitation 11.33 9.73  
Sea Level Pressure  
Sea Level Pressure 30.02 in    
Wind  
Wind Speed 5 mph (NNE)    
Max Wind Speed 12 mph    
Max Gust Speed 14 mph    
Visibility 10 miles    
Events      
T = Trace of Precipitation, MM = Missing Value Source: NWS Daily Summary

Daily Weather History Graph

Daily Weather History Graph

Search for Another Location

Airport or City:

Trip Planner

Search our weather history database for the weather conditions in past years. The results will help you decide how hot, cold, wet, or windy it might be!

Date:

Astronomy

May. 07, 2013 Rise Set
Actual Time 5:38 AM CDT 7:58 PM CDT
Civil Twilight 5:07 AM CDT 8:29 PM CDT
Nautical Twilight 4:28 AM CDT 9:08 PM CDT
Astronomical Twilight 3:45 AM CDT 9:51 PM CDT
Moon 4:15 AM CDT (5/7) 5:55 PM CDT (5/7)
Length of Visible Light 15h 22m
Length of Day
14h 19m
Waning Crescent, 5% of the Moon is Illuminated
May 7
Waning Crescent
May 9
New
May 17
First Quarter
May 24
Full
May 31
Last Quarter

Hourly Weather History & Observations

Time (CDT) Temp. Windchill Dew Point Humidity Pressure Visibility Wind Dir Wind Speed Gust Speed Precip Events Conditions
12:52 AM 46.0 °F 44.8 °F 37.9 °F 73% 30.01 in 10.0 mi WNW 3.5 mph - N/A   Clear
1:52 AM 46.9 °F - 39.0 °F 74% 30.01 in 10.0 mi WNW 4.6 mph - N/A   Clear
3:52 AM 45.0 °F - 39.0 °F 80% 30.01 in 10.0 mi Calm Calm - N/A   Clear
4:52 AM 46.9 °F - 37.0 °F 68% 30.01 in 10.0 mi WNW 4.6 mph - N/A   Clear
5:52 AM 48.9 °F - 37.0 °F 64% 30.02 in 10.0 mi NW 5.8 mph - N/A   Mostly Cloudy
6:52 AM 54.0 °F - 37.9 °F 55% 30.04 in 10.0 mi North 3.5 mph - N/A   Partly Cloudy
7:52 AM 57.9 °F - 36.0 °F 44% 30.04 in 10.0 mi NNW 5.8 mph - N/A   Scattered Clouds
8:52 AM 62.1 °F - 39.0 °F 43% 30.05 in 10.0 mi North 4.6 mph - N/A   Clear
9:52 AM 60.1 °F - 39.9 °F 47% 30.06 in 10.0 mi ENE 8.1 mph - N/A   Clear
10:52 AM 63.0 °F - 41.0 °F 45% 30.05 in 10.0 mi North 3.5 mph - N/A   Clear
11:52 AM 64.9 °F - 39.9 °F 40% 30.04 in 10.0 mi NNE 5.8 mph - N/A   Clear
12:52 PM 68.0 °F - 39.9 °F 36% 30.03 in 10.0 mi NNE 5.8 mph - N/A   Clear
1:52 PM 66.9 °F - 39.9 °F 37% 30.02 in 10.0 mi NE 5.8 mph - N/A   Clear
2:52 PM 66.9 °F - 42.1 °F 40% 30.01 in 10.0 mi East 6.9 mph - N/A   Clear
3:52 PM 66.0 °F - 43.0 °F 43% 30.01 in 10.0 mi ENE 4.6 mph - N/A   Clear
4:52 PM 68.0 °F - 45.0 °F 43% 30.00 in 10.0 mi NE 3.5 mph - N/A   Clear
5:52 PM 71.1 °F - 43.0 °F 36% 29.99 in 10.0 mi ENE 3.5 mph - N/A   Clear
6:52 PM 68.0 °F - 44.1 °F 42% 29.99 in 10.0 mi ENE 5.8 mph - N/A   Clear
7:52 PM 61.0 °F - 45.0 °F 56% 29.99 in 10.0 mi NE 4.6 mph - N/A   Clear
8:52 PM 53.1 °F - 44.1 °F 71% 30.01 in 10.0 mi ENE 6.9 mph - N/A   Clear
9:52 PM 48.9 °F - 42.1 °F 77% 30.02 in 10.0 mi NE 3.5 mph - N/A   Clear
10:52 PM 48.0 °F - 42.1 °F 80% 30.03 in 10.0 mi ESE 3.5 mph - N/A   Clear
11:52 PM 46.0 °F - 42.1 °F 86% 30.02 in 9.0 mi Calm Calm - N/A   Clear